Wind_Speed
16 15 15 15 13 12 11 10 8 7 7 6 5 5 4 4 4 4 4 4 4 4 4 5 5 5 6 7 8 8 9 9 9 9 9 8 8 7 5 4 3 3
18 17 16 15 13 12 12 11 10 9 8 7 6 6 6 6 6 5 6 6 6 6 6 6 7 6 6 6 7 8 9 9 9 9 9 9 8 8 7 6 5 3
20 19 17 16 15 14 13 12 11 10 9 8 8 7 7 7 7 7 7 8 8 8 8 8 8 8 8 7 7 8 8 9 9 9 9 9 9 9 8 8 7 6
20 19 18 18 17 15 13 12 11 10 10 9 9 8 8 8 8 8 8 9 9 9 9 9 10 10 10 9 8 8 9 9 9 9 10 10 10 10 10 9 8 8
21 20 20 19 17 15 13 12 12 11 10 10 9 8 8 8 8 8 9 9 9 10 10 10 10 11 11 11 10 10 10 10 10 9 10 10 11 12 12 11 10 9
20 20 19 17 16 15 14 14 13 12 11 10 9 8 8 8 8 9 9 9 9 10 10 10 10 11 12 13 13 12 11 11 11 11 10 10 11 12 12 13 12 11
19 19 18 17 16 15 15 15 14 13 12 11 9 8 8 8 8 9 9 9 10 11 11 11 11 11 12 13 13 13 13 12 12 12 11 10 10 11 12 13 12 12
19 19 19 18 17 17 16 15 14 13 12 10 9 9 8 8 9 9 9 10 10 11 12 12 12 12 12 12 12 13 13 13 13 13 12 11 10 11 11 12 12 12
20 19 19 18 17 17 17 16 14 13 12 10 10 9 8 8 9 9 9 10 11 11 12 12 13 13 13 13 12 12 12 12 13 13 13 12 11 11 10 11 11 12
19 19 18 17 16 16 16 16 15 14 12 11 9 8 8 8 8 8 9 10 11 11 12 12 13 13 13 13 12 11 11 11 11 12 13 13 12 12 11 11 11 11
18 18 17 16 16 16 16 16 15 14 12 10 9 8 8 8 8 8 9 10 11 11 12 12 12 12 13 13 12 11 11 10 10 11 11 12 12 13 12 12 12 12
18 18 17 17 17 16 16 16 15 13 11 10 9 9 9 9 9 9 10 11 11 11 11 12 12 12 12 12 12 11 11 10 10 10 11 11 12 13 13 13 13 12
17 18 19 19 18 17 16 15 14 13 12 11 10 10 10 9 10 10 11 11 11 11 11 11 11 11 11 11 11 11 11 10 9 10 10 11 12 12 12 11 11 10
18 19 19 19 19 17 16 15 14 13 12 12 11 11 11 11 11 11 11 10 10 11 10 10 10 11 11 11 10 10 10 9 8 8 8 9 10 9 8 6 5 5
19 19 18 18 17 16 15 14 14 13 13 13 13 12 12 12 12 11 10 10 11 10 9 9 10 10 10 10 10 9 8 7 6 6 5 5 5 5 3 2 2 2
19 19 18 17 16 16 15 15 15 15 15 14 14 14 13 13 12 11 11 11 11 10 9 9 10 10 9 9 8 8 6 5 4 4 4 4 4 3 2 1 0 1
17 17 17 17 17 17 17 17 17 17 17 17 16 15 14 13 12 12 12 12 12 10 9 10 10 9 8 8 7 6 5 5 5 5 4 4 3 3 3 2 1 1
13 14 14 15 15 16 17 18 19 19 19 19 17 16 15 14 13 12 12 13 12 11 10 10 10 9 8 8 7 7 7 6 5 5 4 3 3 2 2 3 3 3
11 10 11 12 13 15 17 18 18 19 19 19 18 18 17 15 14 13 13 13 13 11 11 11 10 9 9 9 9 8 8 7 6 6 5 4 4 4 5 6 7 7
10 9 9 10 11 13 15 16 16 17 18 18 19 19 18 16 15 15 14 13 13 12 11 10 10 10 10 11 11 10 9 8 7 6 6 6 7 8 9 11 11 11
11 10 10 10 11 12 13 13 14 15 16 17 19 20 19 18 17 16 15 14 13 12 11 11 11 11 11 11 11 11 9 8 7 7 8 8 9 11 13 14 15 16
13 12 11 11 11 11 11 11 13 14 15 17 19 20 20 19 18 16 15 15 14 13 12 12 12 12 12 12 12 12 10 9 9 9 10 10 12 13 15 16 17 18
16 15 14 14 13 12 11 11 13 15 17 18 19 20 20 19 18 17 17 17 17 16 14 14 14 14 13 13 13 13 12 11 11 11 12 13 14 16 18 19 20 21
19 19 18 17 16 15 14 13 13 15 18 20 20 20 20 20 20 20 20 19 18 17 16 16 16 15 14 14 14 14 14 14 15 16 16 17 19 21 22 22 23 23
21 21 21 20 18 17 17 17 16 15 17 20 21 21 21 22 23 23 21 20 19 18 18 17 17 17 16 15 15 16 16 17 19 20 20 20 21 22 22 23 23 24
23 23 24 23 21 21 20 19 18 16 15 17 20 22 23 24 24 23 22 21 20 19 19 18 18 19 19 18 18 19 20 22 23 22 21 20 20 21 21 22 23 24
Wind_Direction
183 188 189 187 188 188 190 196 199 199 200 205 208 206 213 225 234 239 245 260 274 285 296 303 310 321 334 344 352 357 2 4 4 2 2 1 360 357 354 355 7 24
182 187 189 187 187 188 192 197 202 206 207 210 214 218 223 228 236 245 251 260 268 275 282 288 293 298 305 317 330 341 349 353 358 3 5 4 2 358 353 347 344 354
183 185 186 186 188 191 194 196 201 206 207 208 212 220 229 235 242 250 258 264 267 271 274 278 282 285 289 294 303 316 328 337 343 350 355 0 4 2 356 348 340 336
184 185 186 188 191 192 192 193 197 201 203 205 209 218 229 240 249 254 261 266 269 271 272 272 274 277 280 282 284 291 302 314 324 332 339 345 353 357 357 354 347 337
186 188 190 192 192 190 187 189 193 195 198 203 207 214 224 234 247 256 260 264 268 271 272 271 269 270 273 276 276 276 281 290 301 312 322 330 337 344 349 352 353 347
191 192 194 194 192 189 187 189 191 191 194 199 202 209 218 229 241 251 259 266 269 272 272 271 268 267 266 269 272 272 273 277 285 295 306 316 323 329 336 343 347 349
195 194 194 194 191 188 190 193 192 191 194 195 198 205 215 226 237 247 257 265 270 272 274 272 268 265 263 264 267 271 273 273 276 283 293 302 309 315 324 332 337 341
196 194 194 195 193 191 194 196 195 195 196 195 200 209 217 228 239 249 257 263 267 269 271 273 270 266 262 260 262 266 270 272 274 278 283 291 298 305 316 323 327 330
195 195 196 198 197 197 197 197 197 199 199 200 208 216 225 234 242 249 256 262 266 268 268 268 269 268 267 264 262 262 264 268 271 275 279 285 291 299 309 315 318 318
197 197 199 200 200 200 199 197 198 199 201 206 213 220 228 237 241 245 252 258 263 267 269 268 268 268 267 265 264 262 261 262 265 268 274 281 288 295 302 307 311 310
200 200 201 201 201 202 200 199 199 200 203 209 215 220 226 232 236 241 248 255 262 267 270 271 270 268 267 266 263 260 256 255 258 261 266 273 281 289 296 301 306 306
203 202 202 203 203 203 202 202 202 203 206 210 215 220 225 229 233 240 247 254 263 269 271 272 272 270 269 268 266 262 255 249 248 253 258 265 273 281 290 298 303 304
207 206 205 204 204 204 204 204 205 206 209 213 217 221 226 231 234 238 244 252 262 268 271 273 274 274 272 270 268 266 261 255 249 248 254 262 271 280 287 294 299 303
208 208 208 208 208 207 207 208 209 210 213 216 220 224 228 232 234 237 242 251 260 264 268 271 271 271 271 270 269 268 267 267 262 255 253 258 265 274 281 287 293 302
207 208 209 210 212 211 210 212 214 215 218 220 222 225 229 232 234 236 241 248 255 259 263 266 264 264 265 267 269 270 270 270 265 257 244 233 236 246 258 277 303 323
205 207 209 211 211 212 213 215 217 220 222 223 223 225 229 232 233 236 241 246 249 250 253 257 259 261 262 262 265 268 266 254 243 239 227 208 200 201 208 224 353 22
203 206 210 212 213 215 217 219 221 223 224 225 227 228 229 230 231 233 239 243 244 243 244 248 252 255 258 259 259 258 254 242 230 226 224 211 188 170 165 168 181 237
203 208 213 218 221 225 226 227 228 229 229 229 229 230 229 228 227 229 234 239 241 240 242 246 247 246 247 249 250 249 247 243 233 225 220 211 199 195 214 238 249 262
201 207 214 221 227 232 235 237 238 239 238 236 232 230 229 227 225 226 229 236 239 236 239 244 242 236 233 235 238 240 240 240 236 232 230 235 249 265 272 274 276 278
204 207 213 221 228 233 238 242 244 244 243 239 234 231 229 228 227 224 223 229 233 233 236 241 237 228 227 229 231 232 232 234 237 241 248 258 270 281 286 288 290 290
219 221 223 226 230 234 238 243 246 246 242 237 233 228 226 227 226 223 221 223 228 232 234 236 235 232 231 233 234 235 233 235 243 251 256 263 272 279 282 285 288 289
229 235 239 241 240 237 236 240 245 246 242 236 230 225 222 224 226 225 222 219 223 229 231 233 236 237 238 239 242 246 246 246 248 251 255 262 270 275 276 280 283 284
232 238 243 248 250 247 242 241 243 244 243 238 231 224 222 223 225 225 222 219 220 223 227 232 236 238 240 244 251 258 263 265 265 266 269 276 281 283 284 285 286 285
233 238 243 247 253 255 252 249 247 245 244 241 236 229 224 221 222 222 222 220 220 222 225 229 235 239 243 250 257 264 269 271 273 273 276 279 282 284 285 286 287 288
230 236 242 246 252 257 259 258 257 254 247 242 239 235 229 225 223 222 221 221 222 224 225 226 229 235 240 244 249 255 258 260 262 264 267 271 274 276 279 282 285 286
228 230 236 242 248 252 256 258 261 263 257 247 242 239 234 230 226 223 221 221 223 226 226 226 226 230 234 238 242 245 248 251 254 257 259 262 265 270 275 279 281 283
Height
5934 5935 5937 5938 5940 5942 5943 5944 5945 5946 5947 5948 5949 5950 5951 5951 5952 5952 5952 5953 5953 5954 5954 5954 5954 5954 5954 5954 5953 5953 5952 5952 5952 5951 5951 5951 5950 5950 5950 5950 5950 5950
5932 5933 5935 5937 5939 5940 5942 5943 5944 5945 5946 5947 5948 5949 5949 5950 5951 5951 5952 5952 5953 5953 5953 5953 5953 5953 5953 5953 5953 5953 5952 5952 5952 5951 5951 5951 5950 5950 5950 5950 5950 5950
5930 5931 5934 5936 5937 5939 5940 5941 5942 5943 5945 5946 5947 5947 5948 5949 5950 5950 5951 5951 5952 5952 5952 5953 5952 5952 5952 5953 5952 5952 5952 5952 5951 5951 5951 5950 5950 5950 5950 5950 5949 5949
5929 5930 5932 5933 5935 5936 5938 5939 5941 5942 5943 5944 5945 5946 5947 5948 5948 5949 5950 5950 5951 5951 5951 5952 5952 5951 5951 5951 5952 5951 5951 5951 5951 5951 5951 5950 5950 5950 5950 5950 5949 5949
5927 5929 5930 5932 5933 5935 5936 5938 5939 5940 5942 5943 5944 5945 5946 5947 5947 5948 5948 5949 5949 5950 5950 5951 5951 5951 5950 5950 5951 5951 5951 5951 5951 5951 5951 5950 5950 5950 5950 5950 5949 5949
5927 5928 5929 5931 5932 5933 5935 5936 5937 5939 5940 5941 5943 5944 5945 5945 5946 5947 5947 5947 5948 5948 5949 5949 5950 5950 5950 5949 5949 5949 5950 5950 5950 5950 5950 5950 5950 5950 5950 5949 5949 5949
5926 5927 5928 5929 5931 5932 5933 5934 5935 5937 5938 5940 5941 5942 5943 5944 5945 5945 5946 5946 5946 5947 5947 5948 5948 5949 5949 5949 5948 5948 5949 5949 5949 5949 5949 5950 5950 5949 5949 5949 5949 5949
5924 5925 5926 5927 5929 5930 5931 5932 5934 5935 5937 5939 5940 5941 5942 5943 5943 5944 5944 5945 5945 5945 5945 5946 5946 5947 5947 5948 5948 5948 5948 5948 5948 5948 5948 5948 5949 5949 5949 5949 5948 5948
5923 5924 5925 5926 5928 5928 5930 5931 5933 5934 5936 5937 5938 5939 5940 5941 5942 5942 5943 5943 5943 5944 5944 5944 5944 5945 5945 5946 5947 5947 5947 5947 5947 5947 5947 5947 5947 5948 5948 5948 5948 5947
5921 5923 5924 5926 5927 5928 5929 5930 5931 5933 5934 5935 5937 5938 5939 5939 5940 5940 5941 5941 5941 5942 5942 5942 5943 5943 5943 5944 5945 5945 5946 5946 5946 5946 5946 5945 5945 5946 5947 5947 5947 5946
5920 5921 5923 5924 5925 5926 5927 5929 5930 5931 5933 5934 5935 5936 5937 5937 5938 5939 5939 5939 5940 5940 5940 5940 5941 5941 5941 5942 5943 5943 5944 5944 5945 5945 5945 5944 5944 5944 5945 5945 5945 5945
5919 5920 5921 5922 5923 5924 5926 5927 5928 5930 5931 5932 5933 5934 5935 5936 5936 5937 5937 5938 5938 5938 5938 5939 5939 5939 5939 5940 5940 5941 5942 5942 5943 5943 5943 5943 5943 5943 5943 5943 5943 5943
5917 5918 5918 5919 5921 5922 5924 5925 5927 5928 5929 5930 5931 5932 5933 5934 5935 5935 5936 5936 5936 5937 5937 5937 5937 5937 5938 5938 5938 5939 5939 5940 5941 5942 5942 5942 5942 5942 5942 5942 5941 5941
5915 5915 5916 5918 5919 5921 5922 5924 5925 5926 5927 5928 5929 5930 5931 5932 5933 5933 5934 5935 5935 5935 5935 5936 5936 5936 5936 5936 5936 5937 5937 5938 5939 5940 5940 5940 5940 5940 5940 5940 5940 5940
5912 5914 5915 5916 5918 5919 5921 5922 5923 5924 5925 5926 5927 5928 5929 5930 5931 5931 5932 5933 5933 5934 5934 5934 5934 5934 5934 5934 5935 5935 5936 5936 5937 5938 5938 5938 5939 5939 5939 5939 5939 5938
5910 5912 5913 5915 5916 5917 5918 5919 5920 5921 5922 5923 5924 5926 5927 5928 5929 5929 5930 5931 5931 5932 5933 5933 5933 5933 5933 5933 5934 5934 5934 5935 5935 5936 5936 5937 5937 5938 5938 5938 5937 5937
5908 5910 5911 5913 5914 5915 5916 5917 5918 5919 5920 5921 5922 5923 5925 5926 5927 5928 5928 5929 5929 5930 5931 5931 5931 5932 5932 5932 5932 5933 5933 5933 5934 5934 5935 5935 5936 5936 5937 5937 5936 5936
5907 5908 5909 5911 5912 5912 5913 5914 5915 5916 5917 5918 5920 5921 5922 5923 5925 5925 5926 5927 5927 5928 5929 5929 5930 5930 5931 5931 5931 5931 5932 5932 5932 5933 5933 5934 5934 5935 5935 5935 5935 5936
5906 5907 5908 5909 5910 5910 5911 5911 5913 5914 5915 5916 5918 5918 5919 5921 5922 5923 5924 5925 5926 5927 5927 5928 5928 5929 5929 5929 5930 5930 5930 5931 5931 5932 5932 5933 5933 5933 5934 5934 5934 5934
5904 5905 5906 5907 5907 5908 5908 5909 5911 5912 5913 5914 5915 5916 5917 5919 5920 5921 5922 5923 5924 5925 5925 5926 5926 5927 5927 5928 5928 5929 5929 5929 5930 5930 5931 5931 5932 5932 5932 5932 5932 5932
5902 5903 5904 5904 5905 5906 5906 5907 5908 5909 5910 5911 5912 5913 5915 5916 5917 5918 5920 5921 5921 5922 5923 5924 5924 5925 5925 5926 5926 5926 5927 5928 5928 5929 5929 5930 5930 5930 5930 5930 5930 5930
5900 5900 5901 5902 5903 5904 5904 5905 5906 5907 5907 5908 5909 5910 5911 5913 5914 5916 5917 5918 5919 5920 5921 5921 5922 5922 5923 5923 5923 5923 5924 5925 5926 5927 5927 5928 5928 5928 5928 5928 5928 5928
5897 5898 5899 5899 5900 5901 5902 5903 5903 5904 5904 5905 5906 5908 5909 5910 5911 5913 5914 5915 5916 5917 5918 5919 5919 5919 5920 5920 5920 5920 5921 5922 5923 5923 5924 5924 5925 5925 5925 5925 5925 5924
5894 5895 5896 5897 5898 5899 5900 5900 5901 5901 5901 5902 5904 5905 5906 5907 5908 5909 5910 5912 5913 5914 5915 5916 5916 5916 5917 5917 5917 5918 5918 5919 5920 5920 5921 5922 5922 5922 5921 5921 5921 5921
5892 5893 5894 5894 5895 5896 5897 5897 5898 5898 5899 5900 5901 5903 5904 5904 5905 5906 5908 5909 5911 5912 5912 5913 5914 5914 5914 5915 5915 5916 5916 5917 5917 5918 5919 5919 5920 5919 5919 5918 5917 5917
5889 5891 5891 5892 5893 5893 5894 5895 5895 5896 5896 5897 5898 5899 5901 5902 5903 5904 5906 5907 5908 5909 5909 5910 5911 5911 5912 5912 5913 5914 5914 5915 5915 5916 5917 5917 5917 5916 5916 5915 5915 5914